[Date Prev][Date Next][Thread Prev][Thread Next] - [Date Index][Thread Index][Author Index]
2 Line ISS Keps 10-25
- Subject: [sarex] 2 Line ISS Keps 10-25
- From: "Dave Larsen PhD" <doc@xxxxxxxxxxx>
- Date: Mon, 24 Oct 2005 18:30:43 -0700
ISS
1 25544U 98067A 05297.44341007 .00016375 00000-0 11528-3 0 6120
2 25544 051.6447 318.6053 0001172 087.9089 057.7350 15.74275125396023
----
Via the sarex mailing list at AMSAT.ORG courtesy of AMSAT-NA.
To unsubscribe, send "unsubscribe sarex" to Majordomo@amsat.org
AMSAT Home